彩虹 12星 (RADUGA 12)

导读

RADUGA 12(中文译名彩虹12号)是独联体(CIS)继承自苏联的军用通信卫星,隶属于“彩虹”(Raduga)卫星系列,由应用力学设计局研发,于1983年4月发射进入地球静止轨道。它承担军事通信任务,支持加密数据传输,具备较强抗干扰能力,可为战区提供稳定通信保障,设计寿命约3年,在苏联/俄罗斯国防通信体系中发挥过重要作用。

Basic Information
目录编号:
13974
目录名称:
RADUGA 12
国际标识:
1983-028A
轨道中心:
EARTH
卫星名称:
彩虹 12星
卫星全名:
彩虹 12星 (RADUGA 12)
卫星状态:
在轨 (已飞行15772 天)
发射日期:
1983-04-08 UTC
国别 :
俄罗斯(独联体) (CIS)
星等 :
--
Orbit Information
数据来源 国际轨道数据 AOE轨道数据
星历时间 2026-06-12T07:49:33+0800
1天前
查看轨道信息
2026-06-10T04:00:00+0800
3天前
查看轨道信息
半长轴 42167.784km 42167.7km
偏心率 0.000125 0.0001287
轨道倾角 8.207° 8.211°
近地点辐角 11.265° 356.264°
升交点赤经 306.351° 306.366°
平近点角 6.385° 321.945°
近地点 35784.376km 35784.136km
远地点 35794.918km 35794.99km
周期 1436.253分钟 1436.249分钟
每日圈数 1.002609 1.002612
Detailed Information
平衡模式:
三轴稳定
覆盖范围:
全球
运营商:
俄罗斯国家航天集团
运营商所在国:
俄罗斯
制造商(研发单位):
普里克拉德诺伊·梅哈尼基设计局
制造商所在国:
俄罗斯联邦
使用方式:
暂无
Satellite Introduction
彩虹卫星(Raduga, Gran)是苏联用于军事和通信目的的一系列地球静止通信卫星。彩虹卫星旨在支持军事通信、Orbita地面电视网络,并在整个东半球(极地地区除外)提供电话和电报通信。该卫星已退役。
2D Orbit Map
3D Orbit Map
Orbit Altitude Analysis Chart
Orbit Inclination Analysis Chart
Orbit Comprehensive Analysis Chart
View Comprehensive Chart